Temp
25 25 25 25 25 26 27 26 26 27 28 28 26 27 28 24 24 25 23 24 24 25 25 25 25 24 24 24 23 23 22 22 22 21 21 21 21 22 22 22 23 23 23 23
24 24 25 26 26 26 26 26 26 26 27 26 26 26 26 24 25 25 25 24 24 25 25 25 25 24 23 24 24 23 23 23 22 22 22 20 22 22 22 22 22 23 23 22
24 26 27 27 28 28 26 25 26 27 27 27 28 26 27 27 25 25 25 26 24 25 25 24 24 23 23 23 23 24 23 23 23 22 21 21 20 22 21 21 21 22 23 23
25 26 28 27 27 25 26 26 27 27 28 26 27 24 25 26 25 24 24 24 23 24 25 24 24 23 23 23 23 24 24 23 23 22 22 21 21 21 22 23 22 23 23 23
26 28 28 27 28 26 27 29 28 28 27 26 26 25 25 25 26 25 24 24 24 24 25 24 24 24 24 23 24 23 23 23 22 22 22 22 22 22 23 23 23 23 23 22
26 27 28 27 29 27 29 29 25 22 22 24 26 26 25 27 28 29 26 24 26 24 25 25 25 25 24 23 23 23 23 23 22 22 22 22 22 22 22 22 22 22 22 22
26 27 27 28 28 28 27 24 23 25 23 24 24 24 25 28 27 26 28 25 25 25 24 24 23 23 23 23 23 23 23 22 22 22 22 22 22 22 22 22 23 23 22 22
26 26 28 28 28 30 25 24 23 26 24 25 24 26 29 29 27 26 26 26 25 23 24 25 24 24 23 23 23 22 22 22 22 22 22 22 22 22 22 22 22 23 23 23
24 25 28 28 29 30 27 25 25 21 20 23 24 25 27 27 27 27 26 27 25 24 24 25 24 24 24 23 22 23 22 22 22 22 22 22 22 22 22 22 22 23 24 24
26 25 28 30 29 28 28 26 26 21 26 26 24 25 25 28 27 26 26 26 25 24 24 24 24 24 24 23 23 23 23 23 24 22 22 22 22 22 22 22 22 23 23 23
26 24 26 29 28 27 26 26 22 21 21 23 24 24 23 26 28 27 27 26 24 24 23 24 24 24 24 23 22 22 22 22 22 23 22 21 22 22 22 22 22 23 23 23
24 21 22 26 28 26 28 27 23 23 25 20 21 23 27 25 25 26 26 26 25 25 24 23 24 24 23 23 22 22 21 21 22 22 22 22 23 22 22 22 23 23 23 23
24 21 22 24 26 26 24 25 23 20 19 20 22 24 25 25 24 25 25 25 25 26 24 23 22 23 23 23 22 22 22 23 22 22 22 22 22 22 22 23 23 23 23 23
21 19 22 22 24 23 24 25 25 23 21 22 21 25 26 26 24 24 25 25 25 25 24 22 21 22 23 23 23 22 22 22 22 21 21 22 22 22 23 23 23 23 23 23
21 20 20 20 21 22 23 23 24 23 23 24 25 24 25 24 24 24 24 23 24 24 24 22 21 21 21 22 22 22 22 21 21 21 21 21 21 21 22 22 23 23 23 23
17 19 20 20 21 21 22 23 23 23 24 23 24 24 22 23 23 23 22 21 21 21 22 22 23 21 21 22 22 22 22 22 22 21 21 21 23 22 22 22 23 23 23 23
18 16 17 19 19 21 21 21 23 25 21 22 23 22 20 20 21 20 19 19 19 20 20 20 21 22 22 23 22 22 22 21 21 21 21 21 23 20 21 22 22 22 23 23
15 16 15 17 18 20 21 21 22 21 22 20 21 21 20 20 21 20 19 18 19 19 19 19 19 19 21 23 23 23 22 22 21 21 21 21 22 22 21 21 22 23 22 23
15 14 17 18 16 19 20 21 20 20 21 19 19 19 19 20 21 20 18 18 18 18 18 18 19 19 20 21 23 23 21 21 21 21 21 22 22 23 21 21 22 23 22 22
14 13 17 15 18 19 19 19 19 18 18 17 18 18 17 18 18 20 17 17 17 18 18 18 19 20 20 20 22 22 21 21 21 21 21 22 22 22 23 23 23 23 23 23
14 13 16 15 17 18 18 18 18 20 18 16 17 17 17 16 17 17 16 17 17 17 17 18 19 19 19 20 20 21 21 21 22 22 21 21 21 22 23 24 23 23 23 23
15 15 13 13 15 17 17 18 19 16 15 16 16 16 16 16 16 17 16 16 16 16 17 17 17 18 20 19 20 20 21 22 22 22 22 22 22 22 23 23 22 22 22 21
15 14 14 14 14 14 16 17 17 15 14 15 16 15 15 16 16 17 16 16 16 16 17 17 17 18 20 19 19 19 21 21 22 22 22 22 22 22 22 23 22 22 21 20
15 13 13 15 15 15 16 15 15 15 15 15 15 15 16 15 16 16 16 16 15 16 17 18 17 17 17 19 19 20 20 21 20 21 22 22 21 21 22 22 22 21 20 20
14 14 13 12 14 14 15 15 15 16 17 16 16 16 16 16 16 16 15 16 16 15 16 17 17 17 18 19 20 19 20 20 20 20 21 20 20 19 19 19 19 20 20 21
12 14 13 14 15 16 17 18 17 16 17 17 16 16 16 16 15 16 15 15 15 15 15 16 17 16 18 18 19 20 21 20 19 20 19 19 18 19 18 17 18 19 19 20
Height
785 800 811 804 803 799 803 808 811 787 777 782 784 777 760 768 769 769 771 772 771 771 770 776 781 785 787 792 797 801 806 811 816 820 825 827 829 832 834 837 840 842 844 846
799 811 792 789 794 799 803 809 805 787 774 784 780 780 764 766 761 758 759 763 764 764 769 772 776 780 783 786 791 796 802 807 812 815 820 823 824 828 830 834 838 841 843 844
807 793 783 788 792 797 804 810 803 800 782 772 777 786 769 754 753 752 751 751 755 757 762 767 770 773 778 782 786 790 796 802 808 813 817 820 824 826 828 831 834 838 840 842
798 781 783 788 795 797 809 786 787 790 794 812 782 819 783 763 759 754 749 748 751 751 754 759 764 768 771 775 781 786 792 798 804 810 813 816 819 821 823 826 830 834 837 840
794 780 784 791 785 786 793 773 783 784 793 799 797 812 783 766 762 751 744 740 740 743 747 751 756 759 764 772 776 781 788 794 800 805 809 812 815 819 821 824 827 830 834 838
784 769 773 775 767 774 768 777 791 804 814 827 800 804 793 771 753 739 735 734 731 737 740 745 751 757 762 768 775 778 783 789 795 800 804 808 811 816 819 821 824 827 831 835
790 776 764 762 777 772 780 802 833 828 838 835 805 810 790 749 746 739 730 729 727 728 736 741 746 751 757 762 767 773 778 783 789 795 798 802 806 811 815 818 821 825 828 831
809 810 770 762 770 774 791 799 829 835 842 825 805 809 773 745 736 731 725 722 725 730 731 734 738 743 748 755 761 766 772 778 784 790 793 798 802 806 810 814 817 821 825 829
812 802 760 758 755 759 780 799 785 824 832 826 812 788 756 742 734 727 727 723 726 728 726 727 733 738 744 749 753 759 766 772 778 783 789 793 798 802 805 810 815 819 822 826
784 805 764 754 751 757 767 770 800 817 822 827 817 804 794 759 747 736 732 730 725 723 724 725 726 732 737 739 745 752 758 763 768 777 782 787 793 798 802 807 811 815 819 823
780 796 783 760 767 773 778 783 797 805 815 824 827 808 765 755 742 741 733 725 721 718 718 719 723 726 732 740 744 747 751 757 763 769 777 782 788 794 798 802 807 811 815 819
783 802 808 782 757 757 756 770 786 808 806 820 818 803 740 745 744 739 731 722 715 713 713 714 717 724 728 733 739 741 749 760 763 764 770 776 781 788 793 797 802 806 810 814
783 804 816 794 774 764 780 775 782 795 802 813 814 796 746 746 744 736 733 724 717 711 711 713 715 717 722 726 732 737 744 749 753 759 762 771 776 780 786 792 797 801 806 810
785 806 805 815 794 789 788 779 775 786 804 797 797 774 755 746 746 738 730 724 715 714 711 713 714 713 717 723 727 731 737 743 748 753 756 761 766 771 779 786 791 796 800 805
793 811 801 797 791 787 786 783 779 783 782 787 772 774 757 751 746 740 735 730 723 722 720 717 716 710 714 719 724 728 735 739 743 748 753 757 765 771 775 779 785 790 795 799
799 809 799 800 789 787 786 779 776 774 768 772 767 764 755 746 740 741 740 738 736 729 726 723 718 720 716 712 717 724 726 734 740 743 746 756 761 763 769 776 777 782 787 791
803 810 814 812 797 792 796 782 773 762 769 772 774 768 760 754 749 749 747 744 741 736 728 724 721 716 715 715 716 715 719 726 731 736 745 749 751 756 762 765 772 774 777 782
808 810 817 817 807 814 785 770 768 771 768 768 765 764 761 757 748 749 747 747 742 737 730 725 720 715 711 711 711 716 718 717 724 731 734 731 741 752 759 757 764 769 771 774
802 812 812 815 820 799 785 779 781 783 777 771 771 766 761 753 744 747 748 749 746 740 734 729 724 718 715 711 709 712 715 714 719 723 725 726 735 733 744 753 759 764 768 771
806 809 809 822 813 809 791 778 774 776 790 777 772 771 768 761 766 754 751 749 746 742 736 731 726 722 717 712 709 709 711 713 714 718 720 721 726 735 739 747 753 756 761 763
819 820 815 817 812 799 786 779 772 786 791 779 774 773 770 772 767 755 754 750 746 744 738 733 729 725 721 714 711 711 710 709 710 715 719 723 728 734 737 742 748 751 755 760
819 822 826 823 817 809 783 779 786 785 780 776 773 770 769 765 757 751 749 747 745 740 737 735 728 725 721 718 715 714 711 711 712 714 716 719 722 728 733 738 742 748 751 754
820 817 819 817 807 789 783 782 778 778 777 773 770 766 764 759 753 747 743 741 740 738 733 732 730 726 722 719 716 715 709 710 709 712 710 713 716 721 726 731 736 742 746 749
807 808 811 806 792 785 780 776 773 771 770 766 763 760 756 752 745 742 737 733 734 734 731 727 727 724 720 718 716 712 713 713 708 707 704 708 713 716 721 726 731 737 740 747
805 805 804 805 790 782 775 771 768 765 761 757 752 751 747 744 738 735 732 727 725 725 725 723 721 719 715 714 711 715 712 712 710 706 704 705 710 716 720 725 729 735 740 743
801 798 802 797 780 775 765 758 756 755 752 747 743 739 735 734 731 728 726 723 719 717 717 716 716 714 711 707 707 708 706 708 708 702 703 702 704 714 723 732 734 739 741 744
Wind_Speed
3 4 5 7 5 3 2 2 6 17 8 5 8 15 18 9 10 11 11 12 13 16 18 22 23 26 28 30 30 29 29 30 27 26 24 23 24 24 21 20 19 16 13 10
6 5 8 2 4 4 3 4 9 12 9 7 4 11 9 9 12 18 18 15 16 14 11 16 22 25 27 31 31 31 30 30 28 29 29 23 26 23 21 27 20 18 15 12
5 6 5 4 2 2 4 5 5 8 8 3 3 7 6 4 6 5 12 13 12 16 15 13 19 25 27 29 32 33 32 33 30 29 27 19 16 14 15 22 26 23 18 16
5 5 5 5 4 7 5 8 8 7 1 3 3 6 6 5 7 7 9 11 10 14 13 12 18 22 28 31 32 33 32 32 31 30 29 28 23 18 18 21 24 24 20 16
8 3 4 3 6 7 10 3 4 3 2 3 4 3 8 4 7 8 11 14 13 14 14 14 17 27 30 28 33 32 32 31 32 32 32 30 27 22 21 20 20 20 21 18
8 2 5 8 3 7 2 1 4 4 3 2 4 4 7 2 7 6 3 11 14 13 16 14 20 22 25 25 26 30 33 32 32 32 32 31 29 25 22 22 20 20 20 19
7 9 4 5 4 1 4 5 3 4 4 5 1 2 9 12 7 10 12 9 11 12 13 13 14 18 23 26 30 30 33 33 33 33 33 32 30 26 25 25 24 24 22 21
1 9 1 3 6 4 6 8 6 5 3 5 0 5 6 1 9 10 6 5 5 8 11 15 17 23 27 29 30 31 33 32 35 35 33 33 30 27 27 27 27 25 26 24
4 7 3 5 5 5 2 3 4 7 3 2 3 7 9 8 10 12 9 3 5 8 13 14 14 24 26 30 33 36 35 33 37 37 34 33 32 29 28 27 28 26 25 25
4 5 2 2 2 0 5 6 2 3 3 4 5 5 5 6 8 10 12 7 6 8 9 10 14 23 28 33 35 37 38 41 41 37 35 34 33 31 29 28 28 26 24 23
3 3 7 4 4 6 1 1 5 4 4 5 3 6 7 6 3 8 8 7 8 8 9 10 12 22 25 25 30 34 38 37 35 38 37 33 32 31 30 30 31 27 23 22
2 3 4 9 3 3 2 3 5 5 4 1 3 7 5 7 7 7 10 8 6 4 8 8 10 16 22 26 28 31 30 26 32 37 37 37 32 30 31 31 32 29 27 22
4 1 4 10 5 4 6 4 4 3 3 6 6 5 3 3 8 9 8 10 7 4 5 7 9 13 20 25 26 30 31 41 34 36 37 38 34 33 34 33 32 30 28 27
4 1 6 6 6 2 5 6 3 3 1 3 6 5 8 9 8 9 7 8 7 5 5 5 6 9 15 21 24 28 29 32 33 33 36 41 39 37 36 35 33 30 30 27
4 4 5 7 7 4 8 7 8 5 7 5 5 6 9 7 7 7 7 9 10 11 7 4 6 9 13 17 20 22 23 28 31 32 32 37 32 32 33 36 35 33 30 31
1 4 1 5 7 3 4 9 10 9 6 6 5 5 6 8 7 8 9 9 9 11 11 9 4 6 6 20 23 24 28 31 33 31 34 26 33 33 34 36 36 35 35 34
1 3 2 4 3 6 5 5 5 2 6 3 3 3 6 7 10 8 8 8 8 9 11 12 9 6 10 18 23 28 29 29 33 32 25 28 35 28 32 35 34 36 36 35
4 3 2 3 3 3 5 4 4 4 2 4 2 6 7 8 10 2 4 8 10 12 13 12 10 14 14 14 23 22 26 33 32 28 27 33 35 36 36 30 34 35 34 34
3 4 1 1 2 5 2 5 5 5 3 7 6 9 8 14 7 4 11 13 10 11 11 10 17 18 18 12 15 22 24 26 26 27 29 35 41 27 27 29 32 33 31 29
5 4 3 1 2 5 1 7 5 2 3 10 9 8 8 10 5 3 13 11 12 16 17 18 20 16 17 18 5 19 20 22 24 27 30 31 33 31 33 36 35 33 32 32
4 4 0 1 3 3 4 11 6 2 4 5 5 5 6 4 4 13 10 8 9 12 18 24 21 14 13 16 11 12 17 20 25 25 24 27 33 36 38 34 32 31 28 27
1 1 3 2 2 6 4 5 4 4 4 4 4 4 7 10 13 12 8 6 7 10 12 17 18 22 18 15 13 9 12 19 21 22 23 26 29 33 32 31 29 26 25 25
2 5 3 6 5 4 3 4 5 4 6 5 5 9 8 13 14 16 11 6 4 11 16 14 12 16 17 14 10 12 14 12 20 24 24 28 29 30 31 29 28 24 24 20
4 3 4 3 5 6 6 8 7 7 8 9 9 13 13 15 15 15 15 11 5 8 14 17 12 12 16 16 12 15 16 16 16 23 25 26 24 26 27 26 26 24 22 20
4 4 4 5 10 11 11 10 9 10 14 18 19 16 17 17 17 16 13 15 9 10 10 16 17 16 20 21 18 14 16 14 15 17 17 17 16 16 15 15 16 19 21 24
4 6 4 6 8 8 14 15 13 14 19 23 22 20 19 17 17 18 14 15 18 17 14 14 17 18 23 23 23 15 9 11 12 11 11 20 24 17 11 6 7 13 15 18
Wind_Direction
10 66 227 227 197 209 275 248 280 291 265 267 233 245 261 189 207 212 200 203 216 217 217 208 205 207 204 213 215 215 208 208 204 196 198 196 198 201 206 205 196 195 186 179
18 274 241 180 180 197 212 296 286 281 271 176 309 265 255 181 212 207 208 208 217 226 202 200 191 196 203 207 213 216 214 209 204 200 200 201 204 207 221 205 200 202 195 189
161 233 92 165 224 321 246 206 262 236 338 261 0 294 275 254 235 213 220 204 199 202 202 189 188 190 196 200 209 213 213 210 208 206 200 202 202 209 214 211 214 208 202 201
230 258 230 207 232 163 297 186 248 270 202 247 101 287 290 294 271 228 216 206 184 191 205 193 187 187 193 203 207 215 211 210 210 207 206 204 197 198 208 203 206 211 215 213
247 223 206 197 221 165 233 33 340 303 185 33 314 49 270 360 304 267 224 217 198 188 194 194 192 193 198 196 202 207 211 210 210 207 209 211 214 216 212 212 210 211 207 215
242 259 196 216 263 175 262 272 40 56 74 346 250 135 287 293 231 294 251 218 212 186 192 198 197 190 193 194 195 203 207 209 210 207 211 216 217 216 210 212 209 201 207 212
319 260 248 171 287 82 101 68 324 344 9 226 282 63 244 276 298 250 273 226 213 193 178 182 176 182 185 188 194 200 206 207 213 213 214 216 220 221 218 214 213 211 211 213
348 323 180 147 187 190 184 160 161 202 213 259 64 239 256 305 300 311 281 252 196 175 185 187 184 185 188 188 193 195 200 202 213 214 215 217 221 220 223 222 220 222 219 217
196 261 287 188 174 147 205 200 186 108 18 44 249 294 318 328 0 17 24 95 195 204 199 190 184 187 186 187 191 196 201 202 211 215 216 216 220 223 222 224 219 225 225 230
283 287 258 343 160 121 183 157 67 9 157 244 287 282 241 326 332 355 2 343 268 217 204 196 187 189 191 193 193 197 203 206 212 214 217 218 219 222 223 222 219 221 226 229
167 158 287 334 194 196 126 220 54 123 139 175 224 263 215 221 296 320 322 323 302 231 199 193 198 191 192 189 190 196 201 201 203 212 217 214 219 221 222 224 222 223 225 232
349 155 270 235 274 307 217 148 149 134 240 255 160 270 236 196 267 291 294 302 312 273 210 192 178 179 185 189 189 194 195 193 210 210 211 215 216 217 218 220 222 224 225 225
333 321 353 334 358 13 50 5 92 101 79 195 145 260 29 261 301 297 281 308 338 324 207 187 167 184 186 190 188 192 188 201 203 202 208 213 211 215 218 220 223 226 227 232
105 126 188 204 233 195 306 326 20 122 137 195 222 275 302 304 316 307 300 300 329 340 198 213 190 181 185 193 192 193 194 196 196 200 201 207 206 214 217 221 223 228 227 228
94 251 224 251 260 272 261 260 258 231 232 207 249 204 265 297 301 302 321 332 351 344 337 256 235 188 183 190 195 195 198 193 195 197 201 208 206 211 216 220 223 225 226 227
2 252 298 285 283 278 280 284 263 249 229 235 245 276 0 309 326 3 8 10 0 353 344 334 312 295 241 187 185 191 192 195 199 200 205 200 213 219 218 221 220 223 226 229
215 155 89 267 347 346 309 250 258 264 51 349 260 329 320 336 344 3 7 3 350 345 336 334 326 319 248 211 195 194 194 189 195 203 203 195 212 207 217 220 224 224 226 229
140 141 136 246 1 216 254 343 28 98 65 359 359 331 319 311 304 151 26 9 354 342 341 334 332 329 331 246 215 206 194 189 193 196 191 202 202 211 219 217 225 228 226 224
144 126 14 225 216 287 78 2 347 2 301 11 343 341 342 332 320 188 24 3 344 343 326 307 330 330 329 303 238 210 194 188 190 195 194 199 218 211 205 215 224 227 228 227
71 66 128 123 210 236 318 304 320 240 245 356 348 346 344 339 13 286 357 339 334 337 344 340 342 334 353 356 284 205 193 187 195 202 200 202 213 209 211 220 222 225 227 230
346 350 255 277 260 277 304 310 297 150 261 311 350 337 341 336 242 294 311 315 316 316 330 337 340 352 338 348 344 224 200 205 212 210 207 204 206 212 219 224 224 226 227 230
242 345 296 358 265 273 332 348 3 229 274 269 295 301 313 304 305 303 297 286 309 313 321 334 329 324 338 348 354 296 239 238 231 219 214 219 222 223 225 227 230 228 231 227
304 184 222 186 237 243 302 241 263 231 240 271 274 289 288 297 296 300 296 293 279 301 312 336 319 312 320 334 324 323 323 280 238 227 216 223 226 223 224 225 228 228 230 208
279 168 219 15 278 259 254 258 250 254 245 263 259 270 278 276 282 283 291 291 266 263 303 322 317 298 301 321 322 302 288 291 265 226 214 216 210 215 220 222 226 215 204 191
216 168 211 257 279 283 265 257 248 264 277 281 278 270 269 266 268 271 274 286 285 254 272 306 309 305 300 317 315 295 296 284 268 240 220 199 191 184 179 177 187 201 203 201
194 207 178 239 244 245 280 277 257 271 286 283 278 276 271 263 266 269 266 270 286 290 272 278 294 297 310 314 309 300 285 272 274 257 198 166 144 118 105 136 171 197 206 210